This is the latest recevied weather packets stored in our database for station/object WB3IGR. If no packets are shown the sender has not sent any weather packets the latest 10 day(s).
| Time | Temp. | Humidity | Pressure | Rain* | Wind** | Luminosity | Snow |
|---|---|---|---|---|---|---|---|
| 1778112149 | 16.11° C | 99% | 1010.3 hPa | 0 mm | - | 0 W/m² | - |
| 1778111846 | 16.11° C | 99% | 1010.2 hPa | 0 mm | - | 0 W/m² | - |
| 1778111541 | 16.67° C | 99% | 1010.2 hPa | 1.78 mm | - | 0 W/m² | - |
| 1778111238 | 16.67° C | 99% | 1010.1 hPa | 1.27 mm | - | 0 W/m² | - |
| 1778110936 | 16.67° C | 99% | 1010 hPa | 1.27 mm | - | 0 W/m² | - |
| 1778110633 | 16.67° C | 99% | 1010 hPa | 0 mm | - | 0 W/m² | - |
| 1778110329 | 16.67° C | 99% | 1010.1 hPa | 0 mm | - | 1 W/m² | - |
| 1778110026 | 16.67° C | 99% | 1009.9 hPa | 9.65 mm | - | 6 W/m² | - |
| 1778109721 | 17.22° C | 99% | 1010.2 hPa | 10.67 mm | - | 1 W/m² | - |
| 1778109419 | 17.78° C | 98% | 1009.8 hPa | 3.05 mm | - | 0 W/m² | - |
| 1778109117 | 17.78° C | 97% | 1009.5 hPa | 3.05 mm | - | 3 W/m² | - |
| 1778108813 | 17.78° C | 96% | 1009.7 hPa | 3.05 mm | - | 3 W/m² | - |
| 1778108510 | 17.78° C | 95% | 1009.5 hPa | 0 mm | - | 1 W/m² | - |
| 1778108207 | 17.78° C | 95% | 1009.4 hPa | 0 mm | - | 9 W/m² | - |
| 1778107904 | 17.78° C | 95% | 1009.4 hPa | 0 mm | - | 10 W/m² | - |
| 1778107600 | 17.78° C | 95% | 1009.2 hPa | 0 mm | - | 31 W/m² | - |
| 1778107296 | 18.33° C | 94% | 1009 hPa | 0 mm | - | 29 W/m² | - |
| 1778106993 | 18.33° C | 93% | 1008.9 hPa | 0 mm | - | 28 W/m² | - |
| 1778106689 | 18.33° C | 92% | 1009.1 hPa | 0 mm | - | 23 W/m² | - |
| 1778106386 | 18.33° C | 91% | 1009.2 hPa | 0 mm | - | 15 W/m² | - |
| 1778106082 | 18.33° C | 91% | 1009.2 hPa | 0 mm | - | 14 W/m² | - |
| 1778105780 | 18.33° C | 91% | 1009.1 hPa | 0 mm | - | 19 W/m² | - |
| 1778105478 | 18.89° C | 90% | 1009.1 hPa | 0 mm | - | 30 W/m² | - |
| 1778105175 | 18.89° C | 90% | 1009.3 hPa | 0 mm | - | 56 W/m² | - |
| 1778104870 | 18.89° C | 89% | 1009.2 hPa | 0 mm | - | 91 W/m² | - |
* Rain latest hour (hover to see other rain measurements)
** Current wind speed in m/s (hover to see current wind gust speed)